Temperature
22 22 22 21 21 21 20 20 20 20 20 19 19 19 19 19 19 19 18 18 18 18 18 18 18 18 18 18 18 18 18 18 17 17 17 17 17 17 17 17 17 17 17
22 22 22 22 21 21 21 21 20 20 20 19 19 19 19 19 19 19 18 18 18 18 18 18 18 18 18 18 18 18 18 17 17 17 17 17 17 17 17 17 17 17 16
23 23 22 22 22 22 21 21 21 20 20 20 19 19 19 19 19 19 19 19 19 18 18 18 18 18 18 18 18 18 18 18 17 17 17 17 17 17 17 17 17 16 16
23 23 23 22 22 22 22 21 21 20 20 20 19 19 19 19 19 19 19 19 19 19 19 18 18 18 18 18 18 18 18 18 17 17 17 17 17 17 17 17 17 16 16
23 23 23 23 23 22 22 21 21 21 20 20 20 19 19 19 19 19 19 19 19 19 19 19 18 18 18 18 18 18 18 18 18 17 17 17 17 17 16 16 16 16 16
24 24 24 23 23 22 22 21 21 21 20 20 20 20 20 20 19 19 19 19 19 19 19 19 19 18 18 18 18 18 18 18 18 17 17 17 17 17 17 16 16 16 16
24 24 24 23 23 23 22 22 21 21 21 20 20 20 20 20 20 20 19 19 19 19 19 19 19 19 18 18 18 18 18 18 18 17 17 17 17 17 16 16 16 16 16
24 24 24 24 24 23 22 22 22 22 21 21 21 21 20 20 20 20 19 19 19 19 19 19 19 19 18 18 18 18 18 18 18 17 17 17 17 17 16 16 16 16 16
24 24 24 24 24 23 23 23 22 22 22 21 21 21 21 20 20 20 20 19 19 19 19 19 19 19 19 18 18 18 18 18 18 17 17 17 17 17 17 16 16 16 15
24 24 24 24 24 24 23 23 23 22 22 22 21 21 21 21 20 20 20 20 19 19 19 19 19 19 19 18 18 18 18 18 18 17 17 17 17 17 17 16 16 16 16
24 24 24 24 24 24 23 23 23 23 22 22 22 21 21 21 21 20 20 20 19 19 19 19 19 19 19 19 18 18 18 18 18 18 17 17 17 17 17 16 16 16 16
24 24 24 24 24 24 23 23 23 23 22 22 22 21 21 21 21 20 20 20 20 19 19 19 19 19 19 19 18 18 18 18 18 17 17 17 17 17 17 16 16 16 16
23 23 23 23 23 23 23 23 23 23 22 22 22 21 21 21 21 21 20 20 20 19 19 19 19 19 19 18 18 18 18 18 17 17 17 17 17 17 16 16 16 16 16
23 23 23 23 23 23 23 23 23 23 22 22 22 21 21 21 21 21 20 20 20 20 19 19 19 19 18 18 18 18 17 17 17 17 17 16 16 16 16 16 16 16 15
22 23 23 23 23 23 23 23 22 22 22 22 22 21 21 21 21 21 20 20 20 20 19 19 19 19 18 18 18 17 17 17 17 17 16 16 16 16 16 16 15 15 15
22 22 22 23 23 23 23 22 22 22 22 22 22 21 21 21 21 20 20 20 20 19 19 19 19 19 18 18 17 17 17 17 17 16 16 16 16 16 16 15 15 15 15
22 22 22 23 23 23 23 22 22 22 22 21 21 21 21 21 21 20 20 20 20 19 19 19 18 18 18 17 17 17 17 16 16 16 16 16 16 15 15 15 15 15 15
22 22 22 22 23 23 23 22 22 22 21 21 21 21 20 20 21 20 20 20 20 19 19 18 18 18 18 17 17 17 16 16 16 16 15 15 15 15 15 15 15 15 15
22 22 22 22 22 22 22 22 22 21 21 21 21 21 20 20 20 20 20 20 19 19 19 18 18 18 18 17 17 16 16 16 16 15 15 15 15 15 14 14 14 14 14
21 21 21 21 21 21 21 21 21 21 20 20 20 20 20 20 20 20 20 19 19 19 18 18 18 17 17 17 17 16 16 16 15 15 15 15 15 14 14 14 14 14 14
21 21 21 21 21 21 21 20 20 20 20 20 20 20 20 20 20 19 19 19 18 18 18 18 17 17 17 16 16 16 15 15 15 15 15 15 14 14 14 14 14 14 13
20 20 20 20 20 20 20 20 20 20 20 20 20 20 19 19 19 19 19 18 18 18 17 17 17 17 16 16 16 15 15 15 15 15 15 14 14 14 14 13 13 13 13
19 19 19 19 19 19 19 19 19 19 19 19 19 19 19 19 18 18 18 18 18 17 17 17 16 16 16 16 15 15 15 14 14 14 14 14 14 13 13 13 13 13 13
18 18 18 19 19 19 19 19 19 18 18 18 18 18 18 18 18 17 17 17 17 17 17 16 16 16 15 15 15 14 14 14 14 14 14 14 13 13 13 13 13 13 12
17 17 18 18 18 18 18 18 18 18 18 18 18 17 17 17 17 17 17 17 16 16 16 16 15 15 15 15 14 14 14 14 14 13 13 13 13 13 13 12 12 12 12
17 17 17 17 17 17 17 17 17 17 17 17 17 16 16 16 16 16 16 16 15 15 15 15 15 15 14 14 14 14 14 13 13 13 13 13 13 12 12 12 12 12 12
Wind_Speed
8 6 7 7 6 6 7 7 6 5 5 3 3 2 2 1 1 2 3 3 4 4 4 3 3 3 3 3 3 3 3 2 2 2 2 2 1 0 0 0 1 2 2
7 7 7 7 8 8 8 8 7 7 6 4 3 2 2 2 1 1 1 3 3 4 4 4 3 3 3 2 3 3 2 2 2 2 2 1 2 1 1 0 1 1 1
11 10 9 8 8 9 9 9 8 7 6 5 4 3 3 2 1 1 1 2 3 4 4 4 4 3 3 3 3 4 4 3 1 1 2 2 2 1 1 1 0 1 1
11 10 10 9 10 10 9 8 8 7 6 6 5 5 3 3 3 2 2 1 2 4 4 4 4 4 3 4 4 4 3 4 3 1 1 1 2 2 1 1 1 1 1
12 12 13 12 11 10 9 8 7 7 6 6 6 5 3 3 2 2 2 1 1 2 3 4 4 4 3 4 4 4 4 3 3 3 2 1 1 1 2 2 1 1 1
12 12 11 10 9 9 9 8 8 7 6 6 6 6 5 4 3 3 3 2 1 1 2 3 3 4 3 4 4 4 5 4 4 3 3 3 2 3 2 2 2 2 2
12 12 12 12 11 11 10 9 9 8 7 7 6 6 6 6 5 4 3 3 2 2 3 3 3 3 4 4 4 4 4 4 4 4 3 3 3 2 3 2 2 1 1
11 12 13 13 13 13 11 10 10 9 8 8 7 6 5 4 4 4 4 4 3 3 3 4 4 4 4 4 4 4 4 3 4 4 4 3 3 3 3 3 3 1 1
11 12 12 12 13 13 13 13 11 9 9 9 7 6 6 5 5 4 3 3 3 3 3 4 4 4 4 4 4 3 4 3 3 4 4 3 3 3 4 4 4 3 2
9 10 11 12 12 12 11 11 11 11 9 8 8 7 6 6 5 4 4 3 3 2 3 3 3 3 3 4 4 3 3 3 3 3 3 3 3 3 3 4 4 4 4
9 9 9 10 10 9 10 10 10 9 8 8 7 6 6 6 5 4 4 4 3 2 3 3 3 3 3 3 4 4 3 4 4 3 4 4 3 3 3 3 4 4 4
7 8 8 8 8 9 9 10 9 9 9 8 7 7 6 5 5 5 4 4 4 3 3 3 3 3 3 3 4 4 4 4 4 4 4 4 3 4 3 3 4 4 4
5 6 6 7 7 8 8 9 9 9 8 7 7 6 6 6 6 6 5 5 4 3 3 3 3 3 3 3 3 4 4 4 4 4 4 4 3 3 3 3 4 3 4
5 6 6 6 6 6 7 7 8 8 8 8 7 7 7 7 6 6 5 5 4 4 4 4 3 3 3 3 3 3 3 3 3 3 3 3 4 4 4 4 4 4 3
4 5 5 5 5 6 6 6 6 7 8 8 8 8 7 6 6 5 5 4 4 5 4 4 3 3 3 3 3 3 4 4 3 3 3 3 3 4 4 3 4 4 4
4 5 5 5 6 6 6 6 6 7 8 8 8 7 6 6 6 5 5 4 4 3 3 4 4 3 3 3 4 4 3 3 4 3 3 2 2 2 3 3 4 5 5
5 5 5 6 6 6 6 6 6 6 7 7 7 6 6 6 5 5 4 4 4 4 4 4 4 4 3 3 4 4 3 3 3 3 3 3 2 3 2 2 2 4 5
3 4 4 4 4 4 5 5 5 6 6 5 4 5 6 6 5 5 5 5 4 4 4 4 4 4 3 4 4 4 3 3 3 3 4 4 3 3 2 2 2 2 4
2 3 3 3 3 4 5 7 6 5 6 6 5 5 6 5 5 5 5 5 4 4 4 3 4 4 3 4 5 5 3 3 3 3 3 4 4 3 3 3 3 3 3
1 2 2 2 2 2 4 6 6 5 5 5 5 5 6 6 6 6 5 4 4 4 4 3 3 3 3 3 4 5 3 2 2 2 3 4 4 4 4 4 4 5 5
2 3 4 3 2 2 4 5 5 5 5 4 4 4 5 6 6 5 4 3 3 3 2 2 1 2 2 2 3 4 3 3 3 3 3 3 4 5 6 6 5 6 5
3 4 4 3 2 2 4 4 4 4 3 4 3 3 3 3 4 4 4 4 4 3 2 1 1 1 1 1 2 4 5 4 3 3 3 3 4 5 6 5 5 5 4
3 3 4 4 2 2 3 4 3 2 3 3 3 3 3 3 4 5 5 4 3 3 3 2 2 2 1 1 2 4 5 5 3 2 3 3 3 3 3 4 4 3 2
2 3 3 3 2 2 2 3 2 2 3 3 3 3 3 3 2 2 3 3 3 3 3 3 3 2 1 1 1 1 2 2 2 2 1 1 2 1 2 2 2 2 3
1 2 2 2 2 1 1 1 2 3 3 3 2 2 2 3 3 2 1 1 2 3 4 4 4 3 3 3 3 3 2 2 2 1 0 0 1 1 2 2 2 2 2
2 1 1 1 1 1 1 0 1 3 3 2 2 2 2 2 3 3 2 4 1 0 2 3 3 2 3 3 3 3 2 2 3 2 1 2 2 3 3 3 3 3 3
Wind_Direction
219 201 191 183 173 172 172 175 169 165 149 139 144 144 162 170 165 182 183 181 178 170 165 164 160 159 164 168 153 134 127 116 116 98 61 33 36 55 321 278 258 261 256
211 203 191 181 183 183 181 179 178 172 171 169 157 147 139 141 164 171 170 185 184 183 178 174 176 172 164 157 154 143 137 144 139 131 114 18 347 353 20 347 258 276 275
208 204 195 189 187 189 187 187 184 178 178 165 130 103 84 67 91 120 193 202 184 183 181 178 176 177 174 180 178 165 161 172 174 160 156 163 223 288 332 346 317 305 286
206 202 196 193 195 194 186 183 182 181 177 163 155 153 161 177 193 184 195 207 182 182 183 180 178 181 182 184 190 178 173 165 182 189 196 187 163 172 283 315 319 314 282
201 199 198 197 197 187 182 183 180 181 176 170 170 167 176 192 181 164 169 197 197 187 186 183 182 189 192 193 188 176 176 178 182 183 173 151 142 166 184 252 297 315 289
199 200 197 190 188 181 178 179 180 188 182 178 177 179 188 188 176 186 191 203 209 211 204 192 190 195 195 194 195 189 185 189 186 187 182 176 177 187 186 213 244 262 281
196 195 190 187 186 184 184 183 185 194 187 185 189 191 192 187 192 198 196 203 217 227 222 203 197 200 200 195 186 186 197 195 194 199 202 202 206 180 174 179 208 235 269
195 195 194 190 188 187 187 186 190 195 190 191 198 195 190 189 199 202 198 205 216 226 217 200 202 205 197 192 183 190 202 198 205 213 207 209 215 196 190 183 176 206 262
193 193 190 189 188 188 189 190 191 194 193 195 195 194 191 193 200 203 205 214 220 223 209 199 201 202 193 188 182 196 204 195 206 216 214 214 217 203 203 194 184 183 224
188 190 188 189 190 191 189 185 189 195 194 191 195 197 193 196 196 193 201 207 215 208 192 197 199 198 194 188 182 194 197 194 214 212 211 220 220 206 199 194 193 194 201
188 186 186 187 184 182 182 187 188 187 188 189 190 187 189 191 188 195 205 205 202 190 192 192 185 190 200 194 188 203 196 203 220 217 213 225 218 212 209 199 193 197 191
178 176 177 175 176 180 183 187 187 188 191 187 182 188 188 184 190 200 205 200 200 199 196 185 186 198 204 198 196 206 206 210 222 228 225 233 222 219 215 207 211 208 200
164 163 162 170 179 181 181 184 185 189 186 177 178 182 186 190 199 203 202 199 199 195 191 186 194 203 202 199 203 204 210 214 222 225 225 233 219 225 222 218 217 212 205
162 164 168 175 178 177 177 181 184 181 176 173 179 188 194 196 200 200 196 194 190 189 193 195 199 203 204 204 205 205 213 221 226 223 225 230 221 223 222 222 218 205 194
159 165 177 178 173 174 176 176 177 176 174 173 184 197 196 190 190 191 196 194 192 199 193 185 192 201 202 209 204 207 213 219 225 225 225 230 230 220 214 219 212 198 195
178 181 181 180 177 179 180 175 177 177 171 176 190 190 184 185 188 193 192 189 189 190 185 192 197 205 217 211 197 194 208 215 221 229 230 231 236 230 217 217 204 195 195
184 182 184 186 187 184 176 176 182 171 169 180 184 181 179 184 188 189 185 192 196 195 200 209 207 213 222 204 196 192 198 215 224 226 227 236 236 223 225 228 205 207 211
185 182 179 183 187 173 158 156 152 150 154 168 179 175 175 186 183 180 191 201 200 201 208 217 213 211 218 197 193 192 204 221 226 222 220 227 237 220 201 197 211 227 231
195 184 181 176 166 158 151 140 139 145 154 170 177 178 180 184 185 191 200 201 196 200 206 214 205 205 225 203 194 185 204 223 240 238 228 226 230 227 198 195 225 254 261
144 140 120 97 111 133 134 136 145 151 170 187 190 181 176 179 188 192 193 192 190 197 193 209 207 205 224 217 200 194 198 216 247 249 239 228 225 227 202 214 224 248 260
111 118 113 112 132 132 126 137 149 173 186 175 172 177 180 185 189 179 167 158 165 173 177 194 225 223 234 230 203 189 194 211 234 251 251 241 223 226 221 218 225 239 244
98 109 118 117 118 123 132 152 177 186 170 153 155 168 173 179 171 159 159 155 153 159 165 172 245 277 258 226 204 187 199 205 214 236 245 247 233 233 231 231 245 243 229
112 113 130 131 126 131 149 164 197 177 155 144 162 167 167 170 164 163 162 157 160 167 176 186 220 257 272 247 202 196 209 211 216 236 235 233 226 233 233 241 239 220 216
119 122 125 138 154 167 170 184 187 154 140 155 170 164 156 149 146 152 162 165 172 177 184 198 217 236 245 238 226 225 223 217 222 239 242 224 209 224 248 261 255 232 226
124 139 149 168 202 186 168 182 156 140 143 154 158 157 154 146 131 116 118 160 207 204 197 205 202 204 231 238 215 205 217 217 210 181 159 287 268 261 263 262 260 251 240
148 134 142 170 253 210 189 181 165 156 157 162 167 165 156 142 135 126 79 48 53 78 181 192 192 217 221 216 217 235 230 198 166 154 212 245 248 251 255 257 260 254 251
Height
1508 1511 1513 1514 1516 1517 1519 1520 1522 1523 1525 1526 1527 1528 1530 1531 1532 1533 1535 1536 1538 1539 1540 1541 1542 1543 1544 1545 1545 1546 1547 1547 1548 1548 1548 1549 1549 1549 1549 1549 1549 1548 1548
1506 1509 1511 1513 1514 1516 1518 1520 1522 1523 1525 1526 1527 1528 1530 1531 1532 1534 1535 1536 1538 1539 1540 1541 1542 1543 1544 1545 1545 1546 1546 1547 1547 1548 1548 1548 1549 1548 1548 1548 1547 1547 1547
1503 1506 1508 1510 1513 1515 1517 1519 1521 1523 1524 1526 1527 1528 1530 1531 1532 1534 1535 1537 1538 1539 1540 1541 1542 1542 1543 1544 1544 1545 1545 1546 1546 1547 1547 1547 1546 1547 1547 1546 1546 1546 1546
1500 1502 1505 1508 1511 1513 1516 1518 1521 1522 1524 1525 1527 1528 1529 1530 1532 1533 1535 1537 1538 1539 1540 1540 1541 1542 1542 1543 1543 1544 1544 1545 1545 1545 1545 1546 1546 1546 1545 1546 1545 1545 1544
1496 1498 1502 1505 1508 1512 1515 1517 1520 1522 1523 1525 1526 1528 1529 1530 1531 1533 1534 1536 1537 1538 1539 1540 1540 1541 1541 1542 1542 1543 1543 1543 1543 1543 1544 1544 1544 1544 1544 1543 1544 1543 1543
1492 1495 1499 1503 1506 1510 1513 1516 1518 1520 1522 1524 1526 1527 1528 1529 1530 1532 1533 1535 1536 1537 1538 1539 1539 1540 1540 1541 1541 1541 1542 1542 1542 1542 1542 1542 1542 1542 1542 1541 1541 1541 1541
1488 1491 1495 1499 1503 1506 1510 1514 1516 1518 1521 1523 1525 1526 1527 1528 1530 1531 1532 1534 1535 1536 1537 1538 1538 1539 1539 1539 1540 1540 1540 1540 1540 1540 1540 1541 1541 1541 1540 1540 1539 1539 1539
1483 1487 1490 1495 1499 1503 1507 1511 1514 1516 1519 1521 1523 1525 1526 1527 1528 1530 1531 1532 1533 1534 1535 1536 1536 1537 1537 1537 1538 1538 1538 1538 1538 1538 1538 1539 1539 1539 1538 1538 1538 1537 1537
1479 1483 1487 1491 1495 1500 1503 1507 1510 1513 1516 1519 1521 1523 1524 1526 1527 1528 1529 1530 1531 1532 1533 1533 1534 1535 1535 1535 1535 1536 1536 1536 1537 1537 1537 1536 1536 1536 1536 1536 1537 1537 1535
1476 1480 1484 1488 1492 1496 1500 1504 1507 1510 1513 1516 1518 1520 1522 1524 1525 1526 1527 1528 1529 1530 1530 1531 1532 1532 1533 1533 1534 1534 1534 1534 1534 1534 1534 1533 1533 1534 1534 1533 1534 1534 1534
1473 1477 1481 1485 1489 1493 1497 1500 1503 1507 1510 1513 1515 1517 1520 1521 1523 1524 1525 1526 1527 1528 1528 1529 1530 1530 1531 1531 1531 1531 1532 1531 1531 1531 1531 1531 1531 1531 1531 1531 1530 1530 1530
1471 1475 1479 1483 1487 1490 1494 1497 1500 1503 1507 1509 1512 1515 1517 1519 1520 1521 1523 1524 1525 1526 1526 1527 1527 1528 1528 1529 1529 1529 1529 1528 1528 1528 1528 1528 1528 1528 1528 1528 1527 1527 1527
1470 1473 1477 1480 1484 1488 1491 1494 1497 1501 1504 1507 1509 1512 1514 1516 1517 1519 1520 1522 1523 1524 1525 1525 1525 1526 1526 1526 1526 1526 1526 1525 1525 1525 1525 1525 1525 1524 1524 1524 1524 1524 1524
1469 1471 1474 1478 1481 1485 1488 1492 1495 1498 1501 1504 1506 1508 1510 1512 1514 1516 1517 1519 1520 1521 1522 1523 1523 1523 1523 1523 1523 1523 1522 1522 1522 1522 1522 1522 1522 1521 1521 1521 1521 1521 1521
1468 1470 1473 1475 1479 1483 1486 1489 1492 1495 1498 1500 1502 1504 1507 1509 1511 1513 1515 1516 1517 1518 1518 1519 1519 1520 1520 1520 1520 1520 1519 1519 1519 1519 1518 1519 1518 1518 1518 1518 1517 1517 1517
1466 1469 1471 1474 1477 1480 1483 1486 1489 1492 1494 1497 1499 1502 1504 1507 1508 1510 1512 1513 1513 1514 1515 1515 1515 1516 1516 1516 1516 1516 1516 1516 1515 1515 1515 1515 1515 1515 1515 1514 1514 1514 1514
1464 1467 1469 1471 1474 1477 1480 1482 1485 1488 1491 1494 1496 1498 1501 1503 1505 1507 1508 1509 1510 1511 1511 1511 1512 1512 1512 1512 1512 1512 1512 1512 1512 1511 1511 1511 1511 1511 1511 1511 1510 1510 1510
1463 1465 1467 1469 1472 1475 1477 1480 1483 1485 1488 1491 1493 1494 1497 1500 1501 1503 1504 1505 1506 1507 1507 1508 1509 1508 1508 1509 1509 1509 1509 1508 1508 1507 1507 1507 1507 1507 1507 1507 1506 1506 1506
1463 1465 1467 1468 1470 1472 1474 1477 1479 1482 1484 1487 1489 1491 1494 1496 1497 1499 1500 1501 1502 1503 1503 1504 1505 1505 1505 1505 1505 1504 1504 1504 1504 1504 1504 1504 1504 1504 1504 1503 1502 1502 1502
1463 1464 1466 1468 1469 1471 1473 1475 1477 1479 1481 1484 1486 1488 1491 1492 1493 1495 1496 1497 1498 1499 1500 1501 1501 1501 1501 1501 1501 1501 1499 1499 1500 1499 1499 1500 1499 1500 1500 1499 1499 1498 1498
1462 1463 1465 1467 1469 1470 1472 1473 1475 1477 1479 1481 1483 1486 1487 1488 1490 1491 1492 1493 1494 1495 1496 1497 1498 1497 1497 1497 1497 1497 1496 1496 1496 1495 1495 1495 1495 1495 1495 1495 1495 1494 1494
1461 1462 1464 1466 1468 1470 1471 1472 1473 1475 1477 1478 1481 1482 1484 1485 1486 1487 1488 1489 1490 1491 1492 1493 1493 1493 1493 1493 1493 1493 1493 1492 1492 1491 1491 1491 1491 1491 1491 1491 1491 1491 1490
1460 1461 1463 1465 1467 1469 1470 1470 1472 1473 1474 1475 1478 1480 1481 1482 1483 1484 1484 1485 1487 1488 1488 1489 1489 1489 1490 1489 1489 1489 1489 1489 1488 1488 1488 1487 1487 1487 1487 1487 1487 1486 1486
1459 1460 1462 1463 1465 1467 1468 1469 1470 1471 1472 1473 1475 1476 1477 1478 1479 1480 1482 1482 1483 1484 1485 1486 1486 1486 1486 1486 1486 1486 1485 1485 1484 1484 1484 1484 1484 1484 1483 1483 1482 1482 1481
1458 1459 1460 1461 1462 1464 1466 1467 1468 1469 1470 1471 1471 1473 1474 1475 1476 1477 1478 1479 1481 1482 1483 1483 1483 1483 1483 1483 1483 1483 1482 1481 1481 1480 1480 1480 1480 1479 1479 1478 1478 1477 1477
1457 1458 1459 1460 1461 1462 1463 1465 1466 1467 1467 1468 1469 1470 1471 1472 1473 1474 1475 1476 1478 1479 1480 1480 1480 1480 1480 1480 1480 1480 1479 1478 1478 1477 1476 1476 1476 1475 1475 1474 1473 1473 1472